Tracking 30995 objects as of 5-Jul-2025
HD Live streaming from Space Station
objects crossing your sky now

KL-BETA A

Track KL-BETA A now!
10-day predictions


NORAD ID: 49059
Int'l Code: 2021-070A
Perigee: 918.3 km
Apogee: 923.1 km
Inclination: 89.0 °
Period: 103.3 minutes
Semi major axis: 7291 km
RCS: Unknown
Launch date: August 4, 2021
Source: People's Republic of China (PRC)
Launch site: Taiyaun Space Center, China (TSC)
Your satellite tracking list
STARLINK-4281
Track 1 satellite(s)




NASA's NSSDC Master Catalog

Two Line Element Set (TLE):
1 49059U 21070A   25186.60332590  .00000083  00000-0  52636-4 0  9994
2 49059  88.9878 256.4035 0003276  75.3445 284.8093 13.94315496199635
Source of the keplerian elements: AFSPC